Tracking 31023 objects as of 19-Jul-2025
HD Live streaming from Space Station
objects crossing your sky now

DELTA 1 DEB

Track DELTA 1 DEB now!
10-day predictions


NORAD ID: 9701
Int'l Code: 1973-086FZ
Perigee: 1,145.7 km
Apogee: 1,182.0 km
Inclination: 102.6 °
Period: 108.5 minutes
Semi major axis: 7534 km
RCS: 0.0221 m2 (small)
Launch date: November 6, 1973
Source: United States (US)
Launch site: AIR FORCE WESTERN TEST RANGE (AFWTR)

Note: This is SATELLITE DEBRIS
Your satellite tracking list
Your tracking list is empty




NASA's NSSDC Master Catalog

Two Line Element Set (TLE):
1 09701U 73086FZ  25199.94712135  .00003811  00000-0  86042-2 0  9994
2 09701 102.6094   5.2924 0024073 357.7034 157.6427 13.27361036405966
Source of the keplerian elements: AFSPC